| time (UTC) | temp F | wind direction | speed MPH | gust MPH | rain 1hr in | rain 24hr in | rain mn in | humidity % | barometer mb |
| 20260506160105 | 74 | 0 | 0.0 | 5.0 | 0.00 | 0.00 | 0.00 | 71 | 1015.8 |
| 20260506154601 | 73 | 0 | 0.0 | 5.0 | 0.00 | 0.00 | 0.00 | 72 | 1015.7 |
| 20260506153055 | 73 | 232 | 1.0 | 4.0 | 0.00 | 0.00 | 0.00 | 72 | 1015.4 |
| 20260506151553 | 72 | 235 | 1.0 | 5.0 | 0.00 | 0.00 | 0.00 | 74 | 1015.4 |
| 20260506144609 | 71 | 0 | 1.0 | 4.0 | 0.00 | 0.00 | 0.00 | 76 | 1015.1 |
| 20260506143055 | 70 | 0 | 0.0 | 5.0 | 0.00 | 0.00 | 0.00 | 77 | 1015.2 |
| 20260506141555 | 69 | 156 | 0.0 | 4.0 | 0.00 | 0.00 | 0.00 | 77 | 1015.2 |
| 20260506140130 | 68 | 0 | 0.0 | 3.0 | 0.00 | 0.00 | 0.00 | 80 | 1015.3 |
| 20260506134556 | 67 | 0 | 0.0 | 3.0 | 0.00 | 0.00 | 0.00 | 81 | 1015.3 |
| 20260506133138 | 66 | 0 | 1.0 | 4.0 | 0.00 | 0.00 | 0.00 | 80 | 1015.4 |
| 20260506131551 | 65 | 227 | 2.0 | 6.0 | 0.00 | 0.00 | 0.00 | 81 | 1015.1 |
| 20260506130137 | 65 | 0 | 0.0 | 4.0 | 0.00 | 0.00 | 0.00 | 82 | 1015.2 |
| 20260506124553 | 64 | 0 | 0.0 | 3.0 | 0.00 | 0.00 | 0.00 | 82 | 1015.1 |
| 20260506123058 | 63 | 0 | 0.0 | 6.0 | 0.00 | 0.00 | 0.00 | 82 | 1015.2 |
| 20260506121556 | 63 | 222 | 1.0 | 4.0 | 0.00 | 0.00 | 0.00 | 81 | 1015.0 |
| 20260506120100 | 63 | 231 | 3.0 | 6.0 | 0.00 | 0.00 | 0.00 | 81 | 1015.0 |
| 20260506114601 | 63 | 205 | 2.0 | 10.0 | 0.00 | 0.00 | 0.00 | 81 | 1014.9 |
| 20260506113056 | 63 | 211 | 0.0 | 6.0 | 0.00 | 0.00 | 0.00 | 81 | 1014.5 |
| 20260506111557 | 63 | 0 | 0.0 | 5.0 | 0.00 | 0.00 | 0.00 | 81 | 1013.9 |
| 20260506110055 | 62 | 237 | 0.0 | 5.0 | 0.00 | 0.00 | 0.00 | 82 | 1013.7 |
| 20260506104556 | 62 | 0 | 1.0 | 4.0 | 0.00 | 0.00 | 0.00 | 83 | 1014.0 |
| 20260506103048 | 62 | 0 | 0.0 | 5.0 | 0.00 | 0.00 | 0.00 | 83 | 1013.6 |
| 20260506101552 | 62 | 0 | 1.0 | 4.0 | 0.00 | 0.00 | 0.00 | 82 | 1013.5 |
| 20260506100104 | 62 | 236 | 0.0 | 4.0 | 0.00 | 0.00 | 0.00 | 83 | 1013.5 |
| 20260506094601 | 62 | 0 | 1.0 | 6.0 | 0.00 | 0.00 | 0.00 | 83 | 1013.5 |
| 20260506093051 | 62 | 236 | 0.0 | 4.0 | 0.00 | 0.00 | 0.00 | 84 | 1013.7 |
| 20260506091548 | 62 | 0 | 0.0 | 0.0 | 0.00 | 0.00 | 0.00 | 84 | 1014.0 |
| 20260506090049 | 62 | 0 | 0.0 | 0.0 | 0.00 | 0.00 | 0.00 | 84 | 1014.0 |
| 20260506084553 | 62 | 0 | 0.0 | 0.0 | 0.00 | 0.00 | 0.00 | 83 | 1014.0 |
| 20260506083054 | 62 | 0 | 0.0 | 4.0 | 0.00 | 0.00 | 0.00 | 82 | 1014.2 |
| 20260506081603 | 62 | 0 | 1.0 | 6.0 | 0.00 | 0.00 | 0.00 | 81 | 1014.4 |
| 20260506073051 | 63 | 0 | 1.0 | 6.0 | 0.00 | 0.00 | 0.00 | 79 | 1014.6 |
| 20260506071553 | 63 | 0 | 0.0 | 0.0 | 0.00 | 0.00 | 0.00 | 79 | 1014.4 |
| 20260506061550 | 64 | 230 | 1.0 | 5.0 | 0.00 | 0.00 | 0.00 | 76 | 1014.4 |
| 20260506044555 | 65 | 0 | 0.0 | 5.0 | 0.00 | 0.00 | 0.00 | 73 | 1014.7 |
| 20260506043057 | 66 | 214 | 0.0 | 5.0 | 0.00 | 0.00 | 0.00 | 72 | 1014.8 |
| 20260506041559 | 66 | 0 | 0.0 | 4.0 | 0.00 | 0.00 | 0.00 | 70 | 1014.9 |
| 20260506040057 | 66 | 0 | 0.0 | 3.0 | 0.00 | 0.00 | 0.00 | 69 | 1014.9 |
| 20260506034609 | 67 | 0 | 1.0 | 5.0 | 0.00 | 0.00 | 0.00 | 68 | 1015.0 |
| 20260506033050 | 67 | 0 | 0.0 | 4.0 | 0.00 | 0.00 | 0.00 | 66 | 1015.0 |
| 20260506031556 | 68 | 0 | 0.0 | 4.0 | 0.00 | 0.00 | 0.00 | 65 | 1015.0 |
| 20260506030051 | 68 | 0 | 0.0 | 6.0 | 0.00 | 0.00 | 0.00 | 64 | 1014.8 |
| 20260506024554 | 69 | 221 | 0.0 | 4.0 | 0.00 | 0.00 | 0.00 | 65 | 1014.5 |
| 20260506023057 | 69 | 0 | 0.0 | 2.0 | 0.00 | 0.00 | 0.00 | 65 | 1014.4 |
| 20260506021550 | 70 | 0 | 0.0 | 0.0 | 0.00 | 0.00 | 0.00 | 65 | 1014.4 |
| 20260506020049 | 70 | 241 | 0.0 | 3.0 | 0.00 | 0.00 | 0.00 | 65 | 1014.7 |
| 20260506014550 | 69 | 0 | 0.0 | 3.0 | 0.00 | 0.00 | 0.00 | 62 | 1014.6 |
| 20260506013109 | 69 | 0 | 0.0 | 0.0 | 0.00 | 0.00 | 0.00 | 63 | 1014.5 |
| 20260506011600 | 69 | 0 | 0.0 | 0.0 | 0.00 | 0.00 | 0.00 | 60 | 1014.2 |
| 20260506010117 | 70 | 0 | 0.0 | 0.0 | 0.00 | 0.00 | 0.00 | 55 | 1014.0 |
| 20260506004557 | 72 | 0 | 0.0 | 0.0 | 0.00 | 0.00 | 0.00 | 53 | 1013.9 |
| 20260506003056 | 73 | 0 | 0.0 | 0.0 | 0.00 | 0.00 | 0.00 | 50 | 1013.7 |
| 20260506001601 | 74 | 0 | 0.0 | 0.0 | 0.00 | 0.00 | 0.00 | 49 | 1013.3 |
| 20260506000059 | 76 | 0 | 0.0 | 1.0 | 0.00 | 0.00 | 0.00 | 46 | 1013.4 |
| 20260505234554 | 76 | 0 | 0.0 | 0.0 | 0.00 | 0.00 | 0.00 | 45 | 1013.5 |
| 20260505233107 | 77 | 0 | 0.0 | 0.0 | 0.00 | 0.00 | 0.00 | 44 | 1013.5 |
| 20260505231558 | 78 | 207 | 0.0 | 2.0 | 0.00 | 0.00 | 0.00 | 42 | 1013.4 |
| 20260505230059 | 79 | 0 | 0.0 | 4.0 | 0.00 | 0.00 | 0.00 | 41 | 1013.5 |
| 20260505224601 | 79 | 236 | 0.0 | 5.0 | 0.00 | 0.00 | 0.00 | 39 | 1013.6 |
| 20260505223055 | 79 | 0 | 0.0 | 6.0 | 0.00 | 0.00 | 0.00 | 39 | 1013.6 |
| 20260505221600 | 79 | 0 | 0.0 | 6.0 | 0.00 | 0.00 | 0.00 | 40 | 1013.5 |
| 20260505220051 | 79 | 0 | 1.0 | 4.0 | 0.00 | 0.00 | 0.00 | 40 | 1013.6 |
| 20260505214618 | 79 | 0 | 0.0 | 3.0 | 0.00 | 0.00 | 0.00 | 40 | 1013.6 |
| 20260505213050 | 79 | 0 | 1.0 | 5.0 | 0.00 | 0.00 | 0.00 | 40 | 1013.7 |
| 20260505211555 | 79 | 0 | 0.0 | 4.0 | 0.00 | 0.00 | 0.00 | 40 | 1013.9 |
| 20260505210053 | 79 | 0 | 0.0 | 5.0 | 0.00 | 0.00 | 0.00 | 40 | 1013.9 |
| 20260505204552 | 80 | 0 | 3.0 | 7.0 | 0.00 | 0.00 | 0.00 | 38 | 1014.2 |
| 20260505203056 | 81 | 249 | 0.0 | 4.0 | 0.00 | 0.00 | 0.00 | 37 | 1014.2 |
| 20260505201559 | 80 | 0 | 4.0 | 9.0 | 0.00 | 0.00 | 0.00 | 36 | 1014.4 |
| 20260505200056 | 81 | 219 | 4.0 | 9.0 | 0.00 | 0.00 | 0.00 | 36 | 1014.5 |
| 20260505194555 | 80 | 182 | 0.0 | 7.0 | 0.00 | 0.00 | 0.00 | 38 | 1014.7 |
| 20260505193055 | 80 | 0 | 1.0 | 5.0 | 0.00 | 0.00 | 0.00 | 40 | 1014.9 |
| 20260505191603 | 80 | 0 | 0.0 | 4.0 | 0.00 | 0.00 | 0.00 | 38 | 1015.1 |
| 20260505184553 | 80 | 226 | 1.0 | 8.0 | 0.00 | 0.00 | 0.00 | 37 | 1015.6 |
| 20260505183111 | 80 | 208 | 1.0 | 6.0 | 0.00 | 0.00 | 0.00 | 38 | 1016.0 |
| 20260505181549 | 79 | 235 | 4.0 | 8.0 | 0.00 | 0.00 | 0.00 | 39 | 1016.2 |
| 20260505180055 | 79 | 219 | 1.0 | 6.0 | 0.00 | 0.00 | 0.00 | 40 | 1016.1 |
| 20260505174554 | 79 | 0 | 0.0 | 5.0 | 0.00 | 0.00 | 0.00 | 42 | 1016.0 |
| 20260505173057 | 79 | 146 | 1.0 | 6.0 | 0.00 | 0.00 | 0.00 | 41 | 1015.8 |
| 20260505171558 | 79 | 230 | 0.0 | 4.0 | 0.00 | 0.00 | 0.00 | 40 | 1016.0 |
| 20260505170049 | 79 | 217 | 1.0 | 9.0 | 0.00 | 0.00 | 0.00 | 41 | 1016.3 |
| 20260505164554 | 78 | 0 | 0.0 | 6.0 | 0.00 | 0.00 | 0.00 | 41 | 1016.6 |
| 20260505163055 | 78 | 257 | 0.0 | 4.0 | 0.00 | 0.00 | 0.00 | 44 | 1016.7 |
| 20260505161612 | 76 | 0 | 0.0 | 4.0 | 0.00 | 0.00 | 0.00 | 47 | 1016.7 |